Location: Newark
(48.1500°N, 13.1167°E)
Time: 23:36:17
(UTC+00:00)

XW-2D - Pass Details

Date: 15 December 2021
Orbit: 502 x 522 km, 97.5° (Epoch: 19 January)

Event Time Altitude Azimuth Distance (km) Brightness Sun altitude
Rises 04:28:12 0° 23° (NNE) 2,667 ? -22.7°
Reaches altitude 10° 04:30:36 10° 37° (NE) 1,770 ? -22.3°
Maximum altitude 04:33:50 26° 95° (E) 1,064 ? -21.8°
Drops below altitude 10° 04:37:01 10° 153° (SSE) 1,749 ? -21.3°
Sets 04:39:22 0° 166° (SSE) 2,627 ? -20.9°
